Voltar ao catálogo

STARLINK-34476

AtivoComunicaçõesVLEO
NORAD 64364·PAYLOAD·🇺🇸 United States

Lançado Jun 13, 2025 de Vandenberg Space Force Base

Loading…

Próximas Passagens (próximas 24 horas)

TLE

AtualizadoSource: CelesTrak SupGP

Época: Sep 14, 2026, 20:57 UTC

1 64364C 25126W   26257.87340278  .00067334  00000+0  23419-2 0  2570
2 64364  70.0005 275.7015 0003488 265.0203  97.0579 15.29549939    19

Acompanhe STARLINK-34476 em tempo real com AllMySat

Download on the App Store